When you browse on this site, cookies collect data to enhance your experience and personalize the content and advertising you see.
Visit our Privacy Policy to learn more. By continuing to use the site, you agree to this use of cookies and data.
  • In United Kingdom
  • List of Countries
  • For 7 days
  • Water Temperature
  • Weather Map
  • Weather Widgets
  • user-avatar
    Login

    Hourly Weather Polmont

    Today, 27 May, Wednesday

    Time Temperature Precipitation Wind Pressure Humidity
    00:00 +8°C° 0 mm 2 mps 772 mmHg 78%
    01:00 +8°C° 0 mm 2 mps 772 mmHg 78%
    02:00 +8°C° 0 mm 2 mps 772 mmHg 78%
    03:00 +7°C° 0 mm 2 mps 772 mmHg 79%
    04:00 +8°C° 0 mm 2 mps 772 mmHg 78%
    05:00 +9°C° 0 mm 2 mps 772 mmHg 76%
    06:00 +10°C° 0 mm 2 mps 772 mmHg 75%
    07:00 +12°C° 0 mm 1 mps 772 mmHg 71%
    08:00 +13°C° 0 mm 1 mps 772 mmHg 67%
    09:00 +14°C° 0 mm 1 mps 773 mmHg 62%
    10:00 +15°C° 0 mm 1 mps 773 mmHg 59%
    11:00 +16°C° 0 mm 1 mps 772 mmHg 55%
    12:00 +19°C° 0 mm 1 mps 772 mmHg 52%
    13:00 +18°C° 0 mm 2 mps 772 mmHg 53%
    14:00 +18°C° 0 mm 2 mps 772 mmHg 55%
    15:00 +18°C° 0 mm 2 mps 772 mmHg 56%
    16:00 +17°C° 0 mm 2 mps 772 mmHg 61%
    17:00 +16°C° 0 mm 2 mps 772 mmHg 65%
    18:00 +16°C° 0 mm 2 mps 771 mmHg 69%
    19:00 +14°C° 0 mm 1 mps 772 mmHg 73%
    20:00 +13°C° 0 mm 1 mps 772 mmHg 76%
    21:00 +12°C° 0 mm 1 mps 772 mmHg 80%
    22:00 +12°C° 0 mm 1 mps 772 mmHg 78%
    23:00 +12°C° 0 mm 1 mps 771 mmHg 76%

    Tomorrow, 28 May, Thursday

    Time Temperature Precipitation Wind Pressure Humidity
    00:00 +12°C° 0 mm 1 mps 771 mmHg 74%
    01:00 +12°C° 0 mm 1 mps 771 mmHg 76%
    02:00 +11°C° 0 mm 1 mps 770 mmHg 79%
    03:00 +11°C° 0 mm 1 mps 770 mmHg 81%
    04:00 +12°C° 0 mm 1 mps 770 mmHg 80%
    05:00 +12°C° 0 mm 2 mps 770 mmHg 79%
    06:00 +13°C° 0 mm 2 mps 769 mmHg 79%
    07:00 +15°C° 0 mm 2 mps 769 mmHg 76%
    08:00 +16°C° 0 mm 3 mps 769 mmHg 74%
    09:00 +18°C° 0 mm 3 mps 769 mmHg 71%
    10:00 +19°C° 0 mm 3 mps 769 mmHg 70%
    11:00 +20°C° 0 mm 3 mps 769 mmHg 68%
    12:00 +21°C° 0 mm 3 mps 768 mmHg 66%
    13:00 +22°C° 0 mm 3 mps 768 mmHg 65%
    14:00 +22°C° 0 mm 3 mps 768 mmHg 64%
    15:00 +24°C° 0 mm 3 mps 768 mmHg 63%
    16:00 +23°C° 0 mm 2 mps 767 mmHg 66%
    17:00 +23°C° 0 mm 2 mps 767 mmHg 69%
    18:00 +21°C° 0 mm 2 mps 767 mmHg 72%
    19:00 +21°C° 0 mm 1 mps 767 mmHg 77%
    20:00 +19°C° 0 mm 1 mps 767 mmHg 81%
    21:00 +15°C° 0 mm 0 mps 767 mmHg 86%
    22:00 +15°C° 0 mm 0 mps 766 mmHg 87%
    23:00 +14°C° 0 mm 0 mps 766 mmHg 88%

    Day after tomorrow, 29 May, Friday

    Time Temperature Precipitation Wind Pressure Humidity
    00:00 +14°C° 0 mm 0 mps 766 mmHg 89%
    01:00 +13°C° 0 mm 0 mps 766 mmHg 90%
    02:00 +13°C° 0 mm 0 mps 766 mmHg 90%
    03:00 +13°C° 0 mm 1 mps 765 mmHg 91%
    04:00 +14°C° 0 mm 1 mps 765 mmHg 90%
    05:00 +15°C° 0 mm 1 mps 765 mmHg 88%
    06:00 +16°C° 0 mm 1 mps 765 mmHg 87%
    07:00 +18°C° 0 mm 1 mps 765 mmHg 81%
    08:00 +20°C° 0 mm 1 mps 765 mmHg 76%
    09:00 +22°C° 0 mm 1 mps 764 mmHg 70%
    10:00 +23°C° 0 mm 2 mps 764 mmHg 68%
    11:00 +23°C° 0 mm 2 mps 764 mmHg 66%
    12:00 +24°C° 0 mm 2 mps 764 mmHg 63%
    13:00 +24°C° 0.1 mm 3 mps 764 mmHg 64%
    14:00 +24°C° 0.1 mm 3 mps 763 mmHg 66%
    15:00 +24°C° 0.1 mm 3 mps 763 mmHg 67%
    16:00 +22°C° 0.1 mm 3 mps 763 mmHg 68%
    17:00 +23°C° 0.1 mm 2 mps 763 mmHg 68%
    18:00 +21°C° 0.1 mm 2 mps 763 mmHg 69%
    19:00 +19°C° 0 mm 2 mps 763 mmHg 70%
    20:00 +19°C° 0 mm 1 mps 763 mmHg 70%
    21:00 +16°C° 0 mm 1 mps 763 mmHg 70%
    22:00 +15°C° 0 mm 1 mps 763 mmHg 71%
    23:00 +14°C° 0 mm 0 mps 763 mmHg 73%

    30 May, Saturday

    Time Temperature Precipitation Wind Pressure Humidity
    00:00 +13°C° 0 mm 0 mps 763 mmHg 74%
    01:00 +13°C° 0 mm 0 mps 763 mmHg 76%
    02:00 +13°C° 0 mm 0 mps 763 mmHg 77%
    03:00 +12°C° 0 mm 0 mps 763 mmHg 79%
    04:00 +13°C° 0 mm 0 mps 763 mmHg 78%
    05:00 +14°C° 0 mm 0 mps 763 mmHg 77%
    06:00 +15°C° 0 mm 0 mps 763 mmHg 77%
    07:00 +17°C° 0 mm 0 mps 763 mmHg 73%
    08:00 +20°C° 0 mm 1 mps 763 mmHg 69%
    09:00 +22°C° 0 mm 1 mps 763 mmHg 64%
    10:00 +23°C° 0 mm 1 mps 763 mmHg 62%
    11:00 +24°C° 0 mm 1 mps 763 mmHg 60%
    12:00 +25°C° 0 mm 2 mps 763 mmHg 57%
    13:00 +25°C° 0.1 mm 2 mps 763 mmHg 60%
    14:00 +24°C° 0.1 mm 2 mps 763 mmHg 63%
    15:00 +24°C° 0.1 mm 2 mps 763 mmHg 66%
    16:00 +23°C° 0.5 mm 2 mps 762 mmHg 71%
    17:00 +21°C° 0.5 mm 2 mps 762 mmHg 75%
    18:00 +21°C° 0.5 mm 2 mps 762 mmHg 80%
    19:00 +19°C° 0.2 mm 2 mps 762 mmHg 84%
    20:00 +19°C° 0.2 mm 1 mps 762 mmHg 87%
    21:00 +16°C° 0.2 mm 1 mps 762 mmHg 91%
    22:00 +15°C° 0 mm 1 mps 762 mmHg 91%
    23:00 +15°C° 0 mm 1 mps 762 mmHg 92%

    31 May, Sunday

    Time Temperature Precipitation Wind Pressure Humidity
    00:00 +14°C° 0 mm 1 mps 763 mmHg 92%
    01:00 +14°C° 0 mm 1 mps 762 mmHg 92%
    02:00 +13°C° 0 mm 1 mps 762 mmHg 92%
    03:00 +13°C° 0 mm 1 mps 762 mmHg 91%
    04:00 +13°C° 0 mm 1 mps 762 mmHg 91%
    05:00 +13°C° 0 mm 1 mps 762 mmHg 90%
    06:00 +14°C° 0 mm 1 mps 762 mmHg 89%
    07:00 +15°C° 0 mm 1 mps 762 mmHg 86%
    08:00 +16°C° 0 mm 1 mps 762 mmHg 83%
    09:00 +17°C° 0 mm 2 mps 762 mmHg 81%
    10:00 +17°C° 0.1 mm 2 mps 762 mmHg 79%
    11:00 +18°C° 0.1 mm 2 mps 762 mmHg 77%
    12:00 +19°C° 0.1 mm 2 mps 762 mmHg 75%
    13:00 +19°C° 0.2 mm 2 mps 762 mmHg 76%
    14:00 +19°C° 0.2 mm 2 mps 761 mmHg 77%
    15:00 +19°C° 0.2 mm 2 mps 761 mmHg 78%
    16:00 +19°C° 0.3 mm 2 mps 761 mmHg 79%
    17:00 +19°C° 0.3 mm 2 mps 761 mmHg 81%
    18:00 +18°C° 0.3 mm 2 mps 760 mmHg 82%
    19:00 +17°C° 0.1 mm 2 mps 760 mmHg 85%
    20:00 +16°C° 0.1 mm 1 mps 760 mmHg 88%
    21:00 +14°C° 0.1 mm 1 mps 761 mmHg 91%
    22:00 +14°C° 0 mm 1 mps 760 mmHg 91%
    23:00 +13°C° 0 mm 1 mps 760 mmHg 92%

    1 June, Monday

    Time Temperature Precipitation Wind Pressure Humidity
    00:00 +12°C° 0 mm 1 mps 760 mmHg 92%
    01:00 +12°C° 0 mm 1 mps 760 mmHg 92%
    02:00 +11°C° 0 mm 1 mps 759 mmHg 93%
    03:00 +11°C° 0 mm 1 mps 759 mmHg 93%
    04:00 +12°C° 0 mm 1 mps 759 mmHg 92%
    05:00 +13°C° 0 mm 1 mps 759 mmHg 91%
    06:00 +14°C° 0 mm 1 mps 759 mmHg 89%
    07:00 +15°C° 0.1 mm 1 mps 759 mmHg 86%
    08:00 +18°C° 0.1 mm 1 mps 759 mmHg 82%
    09:00 +18°C° 0.1 mm 2 mps 759 mmHg 78%
    10:00 +19°C° 0.5 mm 2 mps 759 mmHg 77%
    11:00 +19°C° 0.5 mm 2 mps 759 mmHg 75%
    12:00 +20°C° 0.5 mm 3 mps 758 mmHg 74%
    13:00 +20°C° 0.7 mm 2 mps 758 mmHg 74%
    14:00 +20°C° 0.7 mm 2 mps 758 mmHg 73%
    15:00 +20°C° 0.7 mm 2 mps 758 mmHg 73%
    16:00 +20°C° 0.8 mm 1 mps 757 mmHg 75%
    17:00 +20°C° 0.8 mm 1 mps 757 mmHg 77%
    18:00 +20°C° 0.8 mm 1 mps 757 mmHg 79%
    19:00 +18°C° 0.5 mm 1 mps 757 mmHg 82%
    20:00 +16°C° 0.5 mm 1 mps 757 mmHg 86%
    21:00 +15°C° 0.5 mm 1 mps 758 mmHg 89%
    22:00 +14°C° 0 mm 1 mps 758 mmHg 90%
    23:00 +14°C° 0 mm 1 mps 757 mmHg 90%
    Show more